Powrót do katalogu

SL-16 DEB

AktywnyLEO
NORAD 22816·DEBRIS·🇷🇺 Russia

Wystrzelony Dec 25, 1992 z Baikonur Cosmodrome

Loading…

Następne Przeloty (najbliższe 24 godziny)

TLE

ŚwieżeSource: Space-Track

Epoka: Sep 13, 2026, 10:46 UTC

1 22816U 92093JC  26256.44896324  .00027012  00000-0  27664-2 0  9992
2 22816  71.4373 260.1989 0030410 175.5312 184.6131 14.90055792722842

Śledź SL-16 DEB w czasie rzeczywistym z AllMySat

Download on the App Store